Location: Newark
(41.0400°S, 62.7845°W)
Time: 01:44:53
(UTC+00:00)

ISS - Pass Details

Date: 25 October 2021
Orbit: 417 x 423 km, 51.6° (Epoch: 01 December)

Event Time Altitude Azimuth Distance (km) Brightness Sun altitude
Rises 02:00:35 0° 230° (SW) 2,418 1.2 -30.6°
Reaches altitude 10° 02:02:51 10° 220° (SW) 1,547 0.0 -30.8°
Enters shadow 02:03:34 15° 213° (SSW) 1,293 -0.5 -30.9°
